Location: *
(58.7167°N, 26.1833°E)
Time: 16:47:47
(UTC+00:00)

Cosmos 1758 - Pass Details

Date: 25 August 2019
Orbit: 540 x 563 km, 82.5° (Epoch: 21 September)

Event Time Altitude Azimuth Distance (km) Brightness Sun altitude
Exits shadow 22:36:28 51° 136° (SE) 716 3.6 -20.6°
Maximum altitude 22:37:05 58° 98° (E) 664 3.6 -20.6°
Drops below altitude 10° 22:41:09 10° 19° (NNE) 1,874 7.1 -20.5°
Sets 22:43:21 0° 16° (NNE) 2,774 8.4 -20.5°
